RYR1DU GMMX-GCTS

Flight info

Callsign RYR1DU
Flight time 1h 35m
Altitude 31000
Route MAGAV UR975 ADM UN869 RUSIK
Aircraft B738/M-SDE2E3FGHIRWXY/LB1

Departure

Time 2026-05-05 13:55
Airport Marrakesh Menara Airport (GMMX)

Arrival

Time 2026-05-05 15:31
Airport Tenerife Sur Airport (GCTS)
Time Latitude Longitude Altitude Speed Heading
2026-05-05 13:39 31.60310 -8.02592 1548 ft 0 kts 185°
2026-05-05 13:47 31.60311 -8.02591 1548 ft 2 kts 185°
2026-05-05 13:47 31.60336 -8.02589 1544 ft 4 kts 183°
2026-05-05 13:48 31.60363 -8.02587 1539 ft 4 kts 188°
2026-05-05 13:48 31.60386 -8.02580 1545 ft 3 kts 202°
2026-05-05 13:48 31.60408 -8.02565 1540 ft 4 kts 229°
2026-05-05 13:48 31.60419 -8.02539 1539 ft 4 kts 266°
2026-05-05 13:49 31.60420 -8.02533 1541 ft 0 kts 271°
2026-05-05 13:50 31.60421 -8.02542 1539 ft 5 kts 276°
2026-05-05 13:50 31.60428 -8.02618 1542 ft 13 kts 276°
2026-05-05 13:51 31.60437 -8.02730 1544 ft 14 kts 275°
2026-05-05 13:51 31.60447 -8.02852 1548 ft 15 kts 276°
2026-05-05 13:51 31.60459 -8.02985 1546 ft 20 kts 276°
2026-05-05 13:51 31.60477 -8.03185 1545 ft 27 kts 276°
2026-05-05 13:52 31.60498 -8.03417 1547 ft 29 kts 276°
2026-05-05 13:52 31.60518 -8.03644 1544 ft 27 kts 276°
2026-05-05 13:52 31.60536 -8.03860 1547 ft 26 kts 276°
2026-05-05 13:52 31.60553 -8.04060 1542 ft 24 kts 276°
2026-05-05 13:53 31.60566 -8.04204 1547 ft 25 kts 276°
2026-05-05 13:53 31.60585 -8.04416 1539 ft 28 kts 276°
2026-05-05 13:53 31.60606 -8.04644 1547 ft 27 kts 276°
2026-05-05 13:53 31.60625 -8.04859 1544 ft 26 kts 276°
2026-05-05 13:54 31.60642 -8.05060 1540 ft 24 kts 276°
2026-05-05 13:54 31.60659 -8.05221 1536 ft 17 kts 292°
2026-05-05 13:54 31.60774 -8.05247 1534 ft 22 kts 17°
2026-05-05 13:54 31.60818 -8.05084 1531 ft 23 kts 96°
2026-05-05 13:55 31.60789 -8.04745 1530 ft 78 kts 96°
2026-05-05 13:55 31.60704 -8.03795 1539 ft 153 kts 95°
2026-05-05 13:55 31.60599 -8.02549 1903 ft 179 kts 92°
2026-05-05 13:55 31.60395 -8.01056 2789 ft 191 kts 109°
2026-05-05 13:56 31.59852 -7.99646 3805 ft 196 kts 113°
2026-05-05 13:56 31.59264 -7.98084 4336 ft 221 kts 112°
2026-05-05 13:56 31.58623 -7.96324 4682 ft 245 kts 112°
2026-05-05 13:56 31.57940 -7.94428 5246 ft 259 kts 112°
2026-05-05 13:57 31.57233 -7.92453 6022 ft 265 kts 114°
2026-05-05 13:57 31.56447 -7.90485 6948 ft 268 kts 127°
2026-05-05 13:57 31.55148 -7.89083 7887 ft 262 kts 153°
2026-05-05 13:57 31.53863 -7.88498 8611 ft 260 kts 172°
2026-05-05 13:58 31.52079 -7.88454 9567 ft 256 kts 195°
2026-05-05 13:58 31.51038 -7.88844 10015 ft 260 kts 211°
2026-05-05 13:58 31.49942 -7.89786 10366 ft 271 kts 225°
2026-05-05 13:58 31.48560 -7.91437 10580 ft 301 kts 229°
2026-05-05 13:59 31.45535 -7.95387 11245 ft 343 kts 231°
2026-05-05 13:59 31.43940 -7.97479 12092 ft 344 kts 231°
2026-05-05 14:00 31.41188 -8.01054 13717 ft 344 kts 231°
2026-05-05 14:00 31.40129 -8.02420 14232 ft 346 kts 231°
2026-05-05 14:00 31.37933 -8.05251 15226 ft 351 kts 231°
2026-05-05 14:00 31.36284 -8.07368 16009 ft 353 kts 231°
2026-05-05 14:01 31.34645 -8.09470 16771 ft 356 kts 231°
2026-05-05 14:01 31.32945 -8.11645 17524 ft 359 kts 231°
2026-05-05 14:01 31.31277 -8.13779 18244 ft 362 kts 231°
2026-05-05 14:01 31.29573 -8.15956 18868 ft 364 kts 231°
2026-05-05 14:02 31.27860 -8.18141 19566 ft 363 kts 231°
2026-05-05 14:02 31.26178 -8.20286 20268 ft 363 kts 231°
2026-05-05 14:02 31.24473 -8.22457 20982 ft 362 kts 231°
2026-05-05 14:02 31.22775 -8.24620 21700 ft 361 kts 231°
2026-05-05 14:03 31.21076 -8.26784 22306 ft 363 kts 231°
2026-05-05 14:03 31.19363 -8.28964 22859 ft 365 kts 232°
2026-05-05 14:03 31.17656 -8.31136 23570 ft 361 kts 231°
2026-05-05 14:03 31.15953 -8.33301 24007 ft 365 kts 231°
2026-05-05 14:04 31.14227 -8.35496 24453 ft 367 kts 231°
2026-05-05 14:04 31.12495 -8.37695 24913 ft 368 kts 231°
2026-05-05 14:04 31.10755 -8.39902 25320 ft 370 kts 231°
2026-05-05 14:04 31.09014 -8.42111 25844 ft 370 kts 231°
2026-05-05 14:05 31.07275 -8.44313 26487 ft 367 kts 231°
2026-05-05 14:05 31.05548 -8.46499 27119 ft 366 kts 232°
2026-05-05 14:05 31.03817 -8.48666 27621 ft 366 kts 231°
2026-05-05 14:05 31.02087 -8.50846 28098 ft 366 kts 232°
2026-05-05 14:06 31.00952 -8.52291 28531 ft 364 kts 232°
2026-05-05 14:06 30.99248 -8.54454 29210 ft 361 kts 233°
2026-05-05 14:06 30.97547 -8.56609 29775 ft 361 kts 232°
2026-05-05 14:06 30.95847 -8.58760 30363 ft 360 kts 232°
2026-05-05 14:07 30.94158 -8.60887 30872 ft 355 kts 232°
2026-05-05 14:07 30.92475 -8.63010 30965 ft 358 kts 232°
2026-05-05 14:07 30.89112 -8.67262 30988 ft 357 kts 232°
2026-05-05 14:08 30.85758 -8.71480 30985 ft 354 kts 232°
2026-05-05 14:08 30.82443 -8.75652 31003 ft 349 kts 232°
2026-05-05 14:09 30.79137 -8.79805 31015 ft 348 kts 232°
2026-05-05 14:09 30.75828 -8.83961 30965 ft 352 kts 232°
2026-05-05 14:10 30.72488 -8.88150 30978 ft 354 kts 232°
2026-05-05 14:10 30.69141 -8.92336 30987 ft 353 kts 232°
2026-05-05 14:11 30.65789 -8.96525 30980 ft 353 kts 232°
2026-05-05 14:11 30.62586 -9.00531 30970 ft 355 kts 232°
2026-05-05 14:12 30.59236 -9.04715 30959 ft 356 kts 232°
2026-05-05 14:12 30.56470 -9.09399 30976 ft 351 kts 246°
2026-05-05 14:13 30.54331 -9.14487 30971 ft 351 kts 245°
2026-05-05 14:13 30.52185 -9.19564 30971 ft 350 kts 245°
2026-05-05 14:14 30.50036 -9.24624 30961 ft 349 kts 245°
2026-05-05 14:14 30.47867 -9.29717 30976 ft 359 kts 245°
2026-05-05 14:15 30.45605 -9.35021 30978 ft 374 kts 245°
2026-05-05 14:15 30.43253 -9.40522 30949 ft 386 kts 245°
2026-05-05 14:16 30.40843 -9.46147 30947 ft 390 kts 245°
2026-05-05 14:16 30.38436 -9.51754 30941 ft 388 kts 245°
2026-05-05 14:17 30.36034 -9.57342 30943 ft 387 kts 245°
2026-05-05 14:17 30.33654 -9.62872 30952 ft 386 kts 245°
2026-05-05 14:18 30.31267 -9.68413 30962 ft 385 kts 245°
2026-05-05 14:18 30.28873 -9.73959 30975 ft 385 kts 245°
2026-05-05 14:19 30.26503 -9.79445 30984 ft 385 kts 245°
2026-05-05 14:19 30.24104 -9.84987 31006 ft 385 kts 245°
2026-05-05 14:20 30.21704 -9.90526 30997 ft 385 kts 245°
2026-05-05 14:20 30.19305 -9.96053 30997 ft 384 kts 245°
2026-05-05 14:21 30.16969 -10.01427 31000 ft 384 kts 245°
2026-05-05 14:21 30.14561 -10.06958 31000 ft 384 kts 245°
2026-05-05 14:22 30.12173 -10.12436 30999 ft 384 kts 245°
2026-05-05 14:22 30.09751 -10.17985 31006 ft 384 kts 245°
2026-05-05 14:23 30.07357 -10.23461 31012 ft 384 kts 245°
2026-05-05 14:23 30.04948 -10.28963 31007 ft 384 kts 245°
2026-05-05 14:24 30.02541 -10.34452 31008 ft 383 kts 244°
2026-05-05 14:24 30.00129 -10.39947 31008 ft 383 kts 244°
2026-05-05 14:25 29.97721 -10.45423 30983 ft 384 kts 244°
2026-05-05 14:25 29.95298 -10.50927 31006 ft 386 kts 244°
2026-05-05 14:26 29.92859 -10.56457 31006 ft 387 kts 244°
2026-05-05 14:26 29.90413 -10.61997 31014 ft 388 kts 244°
2026-05-05 14:27 29.87974 -10.67511 31011 ft 388 kts 244°
2026-05-05 14:27 29.85525 -10.73042 31013 ft 387 kts 244°
2026-05-05 14:28 29.83071 -10.78574 31010 ft 387 kts 244°
2026-05-05 14:28 29.80632 -10.84066 31012 ft 387 kts 244°
2026-05-05 14:29 29.78179 -10.89582 31016 ft 387 kts 244°
2026-05-05 14:29 29.75724 -10.95095 31027 ft 387 kts 244°
2026-05-05 14:30 29.73324 -11.00475 31015 ft 386 kts 244°
2026-05-05 14:30 29.70870 -11.05970 31019 ft 385 kts 244°
2026-05-05 14:31 29.68421 -11.11444 31016 ft 385 kts 244°
2026-05-05 14:31 29.65967 -11.16924 31019 ft 385 kts 244°
2026-05-05 14:32 29.63515 -11.22390 30986 ft 385 kts 244°
2026-05-05 14:32 29.61052 -11.27874 31013 ft 388 kts 244°
2026-05-05 14:33 29.58571 -11.33391 31029 ft 389 kts 244°
2026-05-05 14:33 29.56080 -11.38921 31012 ft 390 kts 244°
2026-05-05 14:34 29.53600 -11.44418 31019 ft 390 kts 244°
2026-05-05 14:34 29.51102 -11.49948 31015 ft 390 kts 244°
2026-05-05 14:35 29.48597 -11.55487 31012 ft 390 kts 244°
2026-05-05 14:35 29.46096 -11.61009 31019 ft 390 kts 244°
2026-05-05 14:36 29.43592 -11.66528 31018 ft 390 kts 244°
2026-05-05 14:36 29.41086 -11.72046 31020 ft 390 kts 244°
2026-05-05 14:37 29.38576 -11.77563 31021 ft 390 kts 244°
2026-05-05 14:37 29.36065 -11.83076 31014 ft 390 kts 244°
2026-05-05 14:38 29.33569 -11.88548 31020 ft 390 kts 244°
2026-05-05 14:38 29.31057 -11.94047 31026 ft 389 kts 244°
2026-05-05 14:39 29.28543 -11.99542 31024 ft 389 kts 244°
2026-05-05 14:39 29.26088 -12.04905 31020 ft 390 kts 243°
2026-05-05 14:40 29.23563 -12.10410 31028 ft 391 kts 243°
2026-05-05 14:40 29.21031 -12.15921 31024 ft 391 kts 243°
2026-05-05 14:41 29.18497 -12.21431 31024 ft 391 kts 243°
2026-05-05 14:41 29.15957 -12.26947 31024 ft 391 kts 243°
2026-05-05 14:42 29.13418 -12.32452 31026 ft 391 kts 243°
2026-05-05 14:42 29.10895 -12.37914 31024 ft 391 kts 243°
2026-05-05 14:43 29.08352 -12.43413 31031 ft 391 kts 243°
2026-05-05 14:43 29.05804 -12.48915 31028 ft 391 kts 243°
2026-05-05 14:44 29.03257 -12.54407 31031 ft 391 kts 243°
2026-05-05 14:44 29.00709 -12.59896 31026 ft 391 kts 243°
2026-05-05 14:45 28.98166 -12.65365 31030 ft 390 kts 243°
2026-05-05 14:45 28.95618 -12.70839 31026 ft 390 kts 243°
2026-05-05 14:46 28.93065 -12.76316 31019 ft 390 kts 243°
2026-05-05 14:46 28.90513 -12.81782 31019 ft 390 kts 243°
2026-05-05 14:47 28.87935 -12.87152 31033 ft 391 kts 242°
2026-05-05 14:47 28.85305 -12.92548 31029 ft 392 kts 242°
2026-05-05 14:48 28.82659 -12.97981 31031 ft 392 kts 242°
2026-05-05 14:48 28.80074 -13.03292 31030 ft 392 kts 242°
2026-05-05 14:49 28.77428 -13.08729 31032 ft 392 kts 242°
2026-05-05 14:49 28.74781 -13.14161 31046 ft 392 kts 242°
2026-05-05 14:50 28.72131 -13.19594 31034 ft 392 kts 242°
2026-05-05 14:50 28.69482 -13.25016 31030 ft 392 kts 242°
2026-05-05 14:51 28.66844 -13.30408 31029 ft 392 kts 242°
2026-05-05 14:51 28.64187 -13.35835 31032 ft 392 kts 242°
2026-05-05 14:52 28.61533 -13.41246 31031 ft 392 kts 242°
2026-05-05 14:52 28.58871 -13.46667 31028 ft 392 kts 242°
2026-05-05 14:53 28.56208 -13.52082 31009 ft 392 kts 242°
2026-05-05 14:53 28.53542 -13.57497 31032 ft 393 kts 242°
2026-05-05 14:54 28.51320 -13.62002 31040 ft 393 kts 242°
2026-05-05 14:54 28.48643 -13.67427 31044 ft 393 kts 242°
2026-05-05 14:55 28.45529 -13.73729 31048 ft 394 kts 241°
2026-05-05 14:55 28.43278 -13.78277 31050 ft 394 kts 241°
2026-05-05 14:56 28.40594 -13.83692 31049 ft 394 kts 241°
2026-05-05 14:56 28.37907 -13.89108 31053 ft 394 kts 241°
2026-05-05 14:57 28.35216 -13.94526 31045 ft 394 kts 241°
2026-05-05 14:57 28.32537 -13.99912 31040 ft 394 kts 241°
2026-05-05 14:58 28.29952 -14.05102 31038 ft 394 kts 241°
2026-05-05 14:58 28.27253 -14.10514 31028 ft 394 kts 241°
2026-05-05 14:59 28.24553 -14.15921 31026 ft 394 kts 241°
2026-05-05 14:59 28.21850 -14.21327 31029 ft 394 kts 241°
2026-05-05 15:00 28.19597 -14.25828 31016 ft 395 kts 241°
2026-05-05 15:00 28.16426 -14.32155 31032 ft 395 kts 241°
2026-05-05 15:01 28.13707 -14.37573 31034 ft 396 kts 241°
2026-05-05 15:01 28.10979 -14.43001 31030 ft 396 kts 241°
2026-05-05 15:02 28.08252 -14.48419 31030 ft 396 kts 241°
2026-05-05 15:02 28.05522 -14.53840 31032 ft 396 kts 241°
2026-05-05 15:03 28.02807 -14.59224 31043 ft 396 kts 240°
2026-05-05 15:03 28.00124 -14.64672 31029 ft 396 kts 245°
2026-05-05 15:04 27.98677 -14.70676 31037 ft 398 kts 254°
2026-05-05 15:04 27.97397 -14.76769 31032 ft 398 kts 254°
2026-05-05 15:05 27.95428 -14.85883 31032 ft 398 kts 254°
2026-05-05 15:06 27.94107 -14.91957 31033 ft 398 kts 254°
2026-05-05 15:06 27.92784 -14.98033 31032 ft 398 kts 253°
2026-05-05 15:07 27.91491 -15.03955 31030 ft 398 kts 253°
2026-05-05 15:07 27.90172 -15.09988 31028 ft 398 kts 253°
2026-05-05 15:08 27.88841 -15.16058 31029 ft 398 kts 253°
2026-05-05 15:08 27.87508 -15.22129 31024 ft 398 kts 253°
2026-05-05 15:09 27.86173 -15.28192 31022 ft 398 kts 253°
2026-05-05 15:09 27.84835 -15.34260 31023 ft 398 kts 253°
2026-05-05 15:10 27.83494 -15.40325 31023 ft 398 kts 253°
2026-05-05 15:10 27.83041 -15.46569 31030 ft 407 kts 270°
2026-05-05 15:11 27.83635 -15.52938 31034 ft 409 kts 270°
2026-05-05 15:11 27.84236 -15.59321 31024 ft 408 kts 270°
2026-05-05 15:12 27.84774 -15.65683 31027 ft 410 kts 270°
2026-05-05 15:12 27.85350 -15.72107 31029 ft 410 kts 270°
2026-05-05 15:13 27.85919 -15.78526 31020 ft 410 kts 270°
2026-05-05 15:13 27.86463 -15.84914 31035 ft 407 kts 270°
2026-05-05 15:14 27.86998 -15.91280 31038 ft 406 kts 270°
2026-05-05 15:14 27.87530 -15.97553 30498 ft 389 kts 270°
2026-05-05 15:14 27.87776 -16.00449 29233 ft 387 kts 270°
2026-05-05 15:15 27.88027 -16.03481 27779 ft 387 kts 270°
2026-05-05 15:15 27.88277 -16.06505 26421 ft 386 kts 270°
2026-05-05 15:15 27.88527 -16.09516 25214 ft 383 kts 270°
2026-05-05 15:15 27.88773 -16.12455 24545 ft 367 kts 270°
2026-05-05 15:16 27.88990 -16.15028 24114 ft 350 kts 269°
2026-05-05 15:16 27.89213 -16.17713 23627 ft 335 kts 269°
2026-05-05 15:16 27.89425 -16.20273 23128 ft 321 kts 269°
2026-05-05 15:16 27.89628 -16.22745 22618 ft 309 kts 269°
2026-05-05 15:17 27.89813 -16.25123 22128 ft 297 kts 266°
2026-05-05 15:17 27.89621 -16.27382 21602 ft 283 kts 253°
2026-05-05 15:17 27.89001 -16.29463 21025 ft 277 kts 246°
2026-05-05 15:17 27.88245 -16.31457 20355 ft 276 kts 245°
2026-05-05 15:18 27.87485 -16.33423 19692 ft 276 kts 245°
2026-05-05 15:18 27.86714 -16.35437 19058 ft 276 kts 245°
2026-05-05 15:18 27.85970 -16.37399 18486 ft 274 kts 245°
2026-05-05 15:18 27.85216 -16.39401 17839 ft 272 kts 245°
2026-05-05 15:19 27.84739 -16.40670 17425 ft 271 kts 245°
2026-05-05 15:19 27.84021 -16.42585 16803 ft 270 kts 246°
2026-05-05 15:19 27.83290 -16.44533 16177 ft 269 kts 246°
2026-05-05 15:19 27.82562 -16.46475 15568 ft 267 kts 246°
2026-05-05 15:20 27.81838 -16.48405 14978 ft 266 kts 246°
2026-05-05 15:20 27.81114 -16.50333 14401 ft 265 kts 246°
2026-05-05 15:20 27.80395 -16.52245 13828 ft 264 kts 247°
2026-05-05 15:20 27.79676 -16.54157 13183 ft 264 kts 247°
2026-05-05 15:21 27.78959 -16.56066 12509 ft 265 kts 246°
2026-05-05 15:21 27.78236 -16.57988 11867 ft 266 kts 246°
2026-05-05 15:21 27.77514 -16.59906 11322 ft 265 kts 246°
2026-05-05 15:21 27.76800 -16.61803 10905 ft 259 kts 246°
2026-05-05 15:22 27.76101 -16.63658 10451 ft 256 kts 246°
2026-05-05 15:22 27.75411 -16.65489 10037 ft 253 kts 246°
2026-05-05 15:22 27.74729 -16.67311 9643 ft 248 kts 249°
2026-05-05 15:22 27.74505 -16.69186 9448 ft 242 kts 275°
2026-05-05 15:23 27.74994 -16.71039 9206 ft 255 kts 294°
2026-05-05 15:23 27.76095 -16.72676 8945 ft 269 kts 311°
2026-05-05 15:23 27.77485 -16.74151 8648 ft 278 kts 315°
2026-05-05 15:23 27.78931 -16.75614 8348 ft 279 kts 315°
2026-05-05 15:24 27.80365 -16.77082 8045 ft 277 kts 315°
2026-05-05 15:24 27.81777 -16.78550 7767 ft 275 kts 315°
2026-05-05 15:24 27.83173 -16.80009 7486 ft 272 kts 316°
2026-05-05 15:24 27.84737 -16.81024 7267 ft 273 kts 346°
2026-05-05 15:25 27.86619 -16.80944 7095 ft 263 kts 12°
2026-05-05 15:25 27.88356 -16.80311 6690 ft 262 kts 20°
2026-05-05 15:25 27.90049 -16.79570 6264 ft 261 kts 20°
2026-05-05 15:26 27.91736 -16.78837 5869 ft 257 kts 20°
2026-05-05 15:26 27.93392 -16.78134 5534 ft 252 kts 19°
2026-05-05 15:26 27.95026 -16.77450 5122 ft 250 kts 19°
2026-05-05 15:26 27.96618 -16.76781 4617 ft 239 kts 21°
2026-05-05 15:27 27.97937 -16.75686 3792 ft 239 kts 54°
2026-05-05 15:27 27.98614 -16.74009 3417 ft 234 kts 67°
2026-05-05 15:27 27.99226 -16.72305 3127 ft 230 kts 67°
2026-05-05 15:27 27.99792 -16.70690 2764 ft 211 kts 68°
2026-05-05 15:28 28.00305 -16.69202 2480 ft 191 kts 65°
2026-05-05 15:28 28.00766 -16.67872 2188 ft 178 kts 64°
2026-05-05 15:28 28.01213 -16.66590 1735 ft 172 kts 65°
2026-05-05 15:28 28.01625 -16.65396 1474 ft 156 kts 66°
2026-05-05 15:29 28.02016 -16.64270 1259 ft 152 kts 65°
2026-05-05 15:29 28.02392 -16.63177 1117 ft 146 kts 65°
2026-05-05 15:29 28.02752 -16.62098 910 ft 150 kts 69°
2026-05-05 15:29 28.03144 -16.61020 673 ft 148 kts 71°
2026-05-05 15:30 28.03515 -16.59943 449 ft 149 kts 75°
2026-05-05 15:30 28.03888 -16.58852 261 ft 152 kts 73°
2026-05-05 15:30 28.04257 -16.57799 195 ft 133 kts 71°
2026-05-05 15:30 28.04515 -16.57057 202 ft 70 kts 69°
2026-05-05 15:31 28.04634 -16.56714 200 ft 32 kts 67°
2026-05-05 15:31 28.04752 -16.56513 210 ft 30 kts 44°
2026-05-05 15:31 28.04875 -16.56380 220 ft 18 kts 41°
2026-05-05 15:31 28.04932 -16.56411 218 ft 12 kts 258°
2026-05-05 15:32 28.04902 -16.56501 221 ft 12 kts 249°
2026-05-05 15:32 28.04872 -16.56587 220 ft 12 kts 248°
2026-05-05 15:32 28.04838 -16.56683 218 ft 14 kts 248°
2026-05-05 15:32 28.04802 -16.56785 220 ft 14 kts 248°
2026-05-05 15:33 28.04766 -16.56889 220 ft 15 kts 248°
2026-05-05 15:33 28.04728 -16.56999 220 ft 15 kts 249°
2026-05-05 15:33 28.04698 -16.57084 221 ft 10 kts 249°
2026-05-05 15:33 28.04662 -16.57162 222 ft 13 kts 244°
2026-05-05 15:34 28.04627 -16.57263 222 ft 15 kts 249°
2026-05-05 15:34 28.04588 -16.57373 222 ft 15 kts 248°
2026-05-05 15:34 28.04551 -16.57479 222 ft 11 kts 248°
2026-05-05 15:34 28.04531 -16.57538 223 ft 6 kts 259°
2026-05-05 15:35 28.04560 -16.57566 222 ft 4 kts 333°
2026-05-05 15:35 28.04580 -16.57575 222 ft 3 kts 338°
2026-05-05 15:35 28.04585 -16.57577 222 ft 0 kts 338°